Regional Weather Roundup
Issued by NWS

Home | Current Version | Previous Version | Graphics & Text | Print | Product List | Glossary On
Versions: 1 2 3 4 5 6 7 8 9 10 11 12 13 14 15 16 17 18 19 20 21 22 23 24 25 26 27 28 29 30 31 32 33 34 35 36 37 38 39 40 41 42 43 44 45 46 47 48 49 50
000
ASUS43 KFSD 200902
RWRSD

WEATHER ROUNDUP FOR SOUTH DAKOTA
NATIONAL WEATHER SERVICE SIOUX FALLS SD
400 AM CDT SUN AUG 20 2017

NOTE: "FAIR" INDICATES FEW OR NO CLOUDS BELOW 12,000 FEET WITH NO
SIGNIFICANT WEATHER AND/OR OBSTRUCTIONS TO VISIBILITY.


SDZ001>005-009-010-012>017-201000-
NORTHWEST AND NORTH CENTRAL SOUTH DAKOTA

CITY           SKY/WX    TMP DP  RH WIND       PRES   REMARKS
BUFFALO          N/A     60  45  57 SE6       29.99R
FAITH            N/A     64  52  64 N13       29.99R
MOBRIDGE       CLOUDY    67  51  56 N12       29.92R
$$

SDZ012>016-024>037-041>051-057-063-072>074-201000-
SOUTHWEST AND SOUTH CENTRAL SOUTH DAKOTA

CITY           SKY/WX    TMP DP  RH WIND       PRES   REMARKS
RAPID CTY ARPT CLEAR     59  46  62 NW8       29.99S
PIERRE         CLOUDY    70  56  61 NE16      29.91R
CUSTER         CLEAR     60  39  45 NE15G23   30.09S
ELLSWORTH AFB  CLEAR     67  47  48 N14       29.99R
PHILIP         CLEAR     70  52  52 NE14G21   29.90R
PINE RIDGE     CLEAR     60  48  64 E5        29.96R
SPEARFISH      FAIR      59  45  58 S6        30.06R
WINNER         FAIR      66  62  87 S6        29.88R
$$

SDZ004>011-016>023-039-040-201000-
NORTHEAST SOUTH DAKOTA

CITY           SKY/WX    TMP DP  RH WIND       PRES   REMARKS
ABERDEEN       CLOUDY    67  61  81 N10       29.87R
WATERTOWN      CLEAR     61  61 100 S3        29.85S
BROOKINGS      CLOUDY    65  62  90 SE6       29.86R
SISSETON         N/A     71  65  81 W12       29.82R
$$

SDZ017-020-022-023-036>040-048>070-201000-
SOUTHEAST SOUTH DAKOTA

CITY           SKY/WX    TMP DP  RH WIND       PRES   REMARKS
SIOUX FALLS    CLOUDY    72  63  73 S9        29.85R
HURON          CLEAR     62  62 100 CALM      29.84R
CHAMBERLAIN    CLEAR     66  66 100 NW10      29.89R
MITCHELL       CLEAR     65  63  93 S5        29.85R
YANKTON        CLOUDY    68  63  84 SE8       29.84S
$$

ABBREVIATIONS USED IN REMARKS
   TC - TEMPERATURE IN CELSIUS
  WCI - WIND CHILL INDEX
   HX - HEAT INDEX
  VSB - VISIBILITY





USA.gov is the U.S. government's official web portal to all federal, state and local government web resources and services.